Regional Weather Roundup
Issued by NWS Newport/Morehead, NC

Current Version | Previous Version | Graphics & Text | Print | Product List | Glossary On
Versions: 1 2 3 4 5 6 7 8 9 10 11 12 13 14 15 16 17 18 19 20 21 22 23 24 25 26 27 28 29 30 31 32 33 34 35 36 37 38 39 40 41 42 43 44 45 46 47 48 49 50
000 ASUS42 KMHX 301225 RWRMHX WEATHER ROUNDUP FOR EASTERN NORTH CAROLINA NATIONAL WEATHER SERVICE NEWPORT/MOREHEAD CITY NC 800 AM EDT TUE AUG 30 2016 NOTE: "FAIR" INDICATES FEW OR NO CLOUDS BELOW 12,000 FEET WITH NO SIGNIFICANT WEATHER AND/OR OBSTRUCTIONS TO VISIBILITY NCZ015>017-031-032-045>047-102-103-301300- NORTH COAST CITY SKY/WX TMP DP RH WIND PRES REMARKS EDENTON FAIR N/A N/A N/A N5 30.08S ELIZABETH CITY FAIR 75 72 90 N8 30.08S KITTY HAWK FAIR 80 78 94 NE8 30.05R MANTEO PTSUNNY 79 77 94 NE12 30.06R $$ NCZ045>047-081-094-103-104-301300- CENTRAL COAST CITY SKY/WX TMP DP RH WIND PRES REMARKS FRISCO HVY RAIN 77 76 96 NE8G17 30.03S FOG $$ NCZ095-097-098-100-101-301300- SOUTHERN COAST CITY SKY/WX TMP DP RH WIND PRES REMARKS BEAUFORT PTSUNNY 77 75 93 N10 30.03R CEDAR ISLAND NOT AVBL JACKSONVILLE PTSUNNY 72 69 90 N5 30.06R PINEY ISLAND NOT AVBL WILMINGTON FAIR 72 70 93 N3 30.06R $$ NCZ011>013-027>030-043-044-078>080-089-090>093-098-301300- COASTAL PLAIN CITY SKY/WX TMP DP RH WIND PRES REMARKS AHOSKIE FAIR 70 67 89 N3 30.11R CLINTON FAIR 71 69 96 CALM 30.09S ELIZABETHTOWN FAIR 71 71 100 CALM 30.08S GOLDSBORO FAIR 69 69 100 N6 30.07R GREENVILLE FAIR 68 68 100 N3 30.11R HAVELOCK FAIR 77 73 87 N9 30.05S KENANSVILLE FAIR 68 68 100 CALM 30.09R KINSTON FAIR 70 68 94 N6 30.09R NEW BERN FAIR 73 71 93 N6 30.07R RICHLANDS FAIR 70 69 97 N3 30.07S ROCKY MOUNT FAIR 72 67 84 N6 30.11R WASHINGTON FAIR 70 69 97 N8 30.08R WHITEVILLE FAIR 73 70 89 CALM 30.08R $$ AMZ130-135-150-152-154-156-158-170-250-252-270-ANZ085-086-088-633-658-670-301300- MARINE OBSERVATIONS STATION/POSITION TIME TEMP WIND PRES WAVE SWELL AIR SEA DIR/SP/G HT/PER HT/PER (UTC) (F) (DEG/KT/KT) (MB) (FT/S) (FT/S) CHESAPEAKE LIGHT NOT AVBL 64 E VA BEACH 1150 80 80 60/ 14/ 16 1017.8 5/12 5/12 DUCK 1200 79 79 40/ 16/ 18 1017.4 2 E DUCK 1111 79 N/A 4/13 3/13 OREGON INLET 1200 79 81 40/ 12/ 15 1017.1 13E OREGON INLT 1200 80 N/A 5/12 3/12 HATTERAS CG 1200 78 82 50/ 7/ 10 1016.2 DIAMOND BUOY 1150 80 84 100/ 19/ 25 1015.9 6/13 5/13 CAPE LOOKOUT 1200 79 350/ 10/ 13 1016.0 BEAUFORT LAB 1200 77 81 350/ 8/ 11 1016.2 30 SE NEW RVR IN 1208 80 84 20/ 16/ 21 1016.5 30 SE NEW RVR IN 1125 84 N/A 5/13 2/13 27 SE WRIGHTSVLE 1208 80 84 360/ 12/ 16 1016.8 5 SE WRIGHTSVLE 1208 77 83 10/ 12/ 16 1017.9 225 S CAPE HAT 1150 83 84 230/ 12/ 14 1015.5 4/11 3/11 41 SE CHARLESTON 1150 82 84 70/ 10/ 10 1016.6 3/12 3/12 $$

USA.gov is the U.S. government's official web portal to all federal, state and local government web resources and services.